Simultaneous Nadir Overpasses (SNOs) Predictions

Prediction of SNOs between FY3D and METOP-C Satellite Orbit:

Table of predicted SNOs for the next 14.0 days since TLE Epoch: 4/16/2020
Index Date (FY3D) Time (FY3D) Lat,Lon (FY3D) SZA (FY3D ) Date (METOP-C) Time (METOP-C) Lat,Lon (METOP-C) SZA (METOP-C ) Distance(km) Time Diff (sec)
1 04/29/2020 04:35:12 73.71, 102.10 59.22 04/29/2020 04:36:18 73.66, 105.10 59.04 93.99 66
2 04/29/2020 05:25:54 -73.64, -90.41 120.88 04/29/2020 05:27:01 -73.59, -87.72 121.04 84.50 67
3 04/29/2020 06:16:36 73.46, 77.31 58.92 04/29/2020 06:17:45 73.39, 79.14 58.76 58.54 69
4 04/29/2020 07:07:18 -73.39,-115.20 121.17 04/29/2020 07:08:28 -73.33,-113.67 121.31 49.18 70
5 04/29/2020 07:57:59 73.16, 52.62 58.57 04/29/2020 07:59:12 73.11, 53.20 58.49 19.15 73
6 04/29/2020 08:48:42 -73.13,-140.01 121.47 04/29/2020 08:49:55 -73.05,-139.60 121.58 15.73 73
7 04/29/2020 09:39:25 73.00, 27.59 58.38 04/29/2020 09:40:36 72.99, 27.60 58.36 1.12 71
8 04/29/2020 10:30:08 -72.98,-165.04 121.66 04/29/2020 10:31:18 -72.98,-165.10 121.66 1.76 70
9 04/29/2020 11:20:54 73.00, 2.23 58.35 04/29/2020 11:21:58 72.97, 2.21 58.32 2.95 64
10 04/29/2020 12:11:37 -72.98, 169.59 121.69 04/29/2020 12:12:40 -72.96, 169.52 121.70 2.66 63
11 04/29/2020 13:02:23 73.00, -23.14 58.33 04/29/2020 13:03:19 73.00, -23.06 58.32 2.62 56
12 04/29/2020 13:53:06 -72.97, 144.23 121.71 04/29/2020 13:54:01 -72.99, 144.25 121.70 2.55 55
13 04/29/2020 14:43:51 72.99, -48.50 58.30 04/29/2020 14:44:40 72.98, -48.44 58.28 2.05 49
14 04/29/2020 15:34:34 -72.97, 118.87 121.74 04/29/2020 15:35:22 -72.98, 118.87 121.74 0.69 48
15 04/29/2020 16:25:20 72.99, -73.86 58.28 04/29/2020 16:26:02 72.96, -73.83 58.24 3.01 42
16 04/29/2020 17:16:03 -72.97, 93.51 121.76 04/29/2020 17:16:44 -72.96, 93.48 121.78 1.32 41
17 04/29/2020 18:06:48 72.93, -99.12 58.20 04/29/2020 18:07:24 72.94, -99.21 58.20 3.17 36
18 04/29/2020 18:57:32 -72.96, 68.14 121.79 04/29/2020 18:58:06 -72.94, 68.10 121.82 3.21 34
19 04/29/2020 19:48:18 72.98,-124.59 58.23 04/29/2020 19:48:45 72.97,-124.48 58.21 3.47 27
20 04/29/2020 20:39:01 -72.96, 42.78 121.81 04/29/2020 20:39:27 -72.97, 42.83 121.81 1.76 26
21 04/29/2020 21:29:46 72.93,-149.84 58.15 04/29/2020 21:30:07 72.95,-149.87 58.17 3.08 21
22 04/29/2020 22:20:30 -72.95, 17.42 121.84 04/29/2020 22:20:49 -72.95, 17.44 121.85 1.28 19
23 04/29/2020 23:11:15 72.92,-175.21 58.12 04/29/2020 23:11:29 72.93,-175.25 58.13 1.84 14
24 04/30/2020 00:01:59 -72.95, -7.95 121.87 04/30/2020 00:02:11 -72.93, -7.94 121.89 2.73 12
25 04/30/2020 00:52:44 72.92, 159.43 58.09 04/30/2020 00:52:51 72.91, 159.37 58.09 2.20 7
26 04/30/2020 01:43:28 -72.95, -33.31 121.89 04/30/2020 01:43:32 -72.96, -33.21 121.89 3.31 4




NCC Satellite Simultaneous Nadir Overpasses (SNOs) Prediction Service
